Weather History for CWSL - February, 2014

Change the Weather History Date:

Sunday, February 16, 2014

  Actual Average Record
Temperature  
Mean Temperature 38 °F -  
Max Temperature 47 °F - - ()
Min Temperature 28 °F - - ()
Degree Days  
Heating Degree Days 28    
Moisture  
Dew Point 25 °F    
Average Humidity 54    
Maximum Humidity 98    
Minimum Humidity 25    
Precipitation  
Precipitation 0.02 in - - ()
Sea Level Pressure  
Sea Level Pressure 29.62 in    
Wind  
Wind Speed 6 mph ()    
Max Wind Speed 14 mph    
Max Gust Speed 28 mph    
T = Trace of Precipitation, MM = Missing Value Source: Averaged Metar Reports

Daily Weather History Graph

Daily Weather History Graph

Search for Another Location

Airport or City:

Trip Planner

Search our weather history database for the weather conditions in past years. The results will help you decide how hot, cold, wet, or windy it might be!

Date:

Astronomy

Feb. 16, 2014 Rise Set
Actual Time 7:07 AM PST 5:16 PM PST
Civil Twilight 6:33 AM PST 5:50 PM PST
Nautical Twilight 5:54 AM PST 6:28 PM PST
Astronomical Twilight 5:17 AM PST 7:06 PM PST
Moon 7:35 PM PST (2/16) 7:24 AM PST (2/16)
Length of Visible Light 11h 16m
Length of Day
10h 09m
Full, 97% of the Moon is Illuminated
Feb 16
Full
Feb 22
Last Quarter
Mar 1
New
Mar 8
First Quarter
Mar 16
Full

Hourly Weather History & Observations

Time (PST) Temp. Windchill Dew Point Humidity Pressure Visibility Wind Dir Wind Speed Gust Speed Precip Events Conditions
12:00 AM 36.1 °F - 35.6 °F 98% 29.35 in - ESE 2.3 mph - 0.02 in   Unknown
1:00 AM 34.2 °F - 33.3 °F 97% 29.37 in - WSW 2.3 mph - N/A   Unknown
2:00 AM 37.8 °F 33.3 °F 35.8 °F 93% 29.39 in - NNE 5.8 mph - N/A   Unknown
3:00 AM 39.7 °F 32.3 °F 30.0 °F 68% 29.42 in - SSE 12.7 mph 18.4 mph N/A   Unknown
4:00 AM 39 °F - 32 °F 67% 29.46 in - SE 9.2 mph - -  
4:00 AM 38.8 °F 32.6 °F 31.8 °F 76% 29.46 in - SE 9.2 mph 19.6 mph N/A   Unknown
5:00 AM 39.0 °F 33.4 °F 28.0 °F 65% 29.48 in - SE 8.1 mph 17.3 mph N/A   Unknown
6:00 AM 42.1 °F 35.7 °F 20.8 °F 43% 29.52 in - SSE 11.5 mph 20.7 mph N/A   Unknown
7:00 AM 39.2 °F 37.0 °F 23.2 °F 53% 29.57 in - SSW 3.5 mph - N/A   Unknown
8:00 AM 38.5 °F 36.1 °F 22.6 °F 53% 29.60 in - WSW 3.5 mph - N/A   Unknown
9:00 AM 41.0 °F 39.0 °F 21.4 °F 46% 29.63 in - SSE 3.5 mph - N/A   Unknown
10:00 AM 44 °F - 22 °F 29% 29.65 in - South 11.5 mph - -  
10:00 AM 43.5 °F 37.5 °F 22.5 °F 43% 29.65 in - South 11.5 mph 18.4 mph N/A   Unknown
11:00 AM 44.1 °F 42.5 °F 22.1 °F 42% 29.68 in - South 3.5 mph - N/A   Unknown
12:00 PM 43.3 °F 36.5 °F 22.1 °F 43% 29.70 in - South 13.8 mph 27.6 mph N/A   Unknown
1:00 PM 44.2 °F 38.8 °F 22.5 °F 42% 29.72 in - SSW 10.4 mph 20.7 mph N/A   Unknown
2:00 PM 43.9 °F 37.9 °F 19.6 °F 38% 29.74 in - South 11.5 mph 18.4 mph N/A   Unknown
3:00 PM 45.3 °F 39.3 °F 19.8 °F 36% 29.76 in - South 12.7 mph 20.7 mph N/A   Unknown
4:00 PM 43 °F - 19 °F 25% 29.78 in - South 9.2 mph - -  
4:00 PM 43.2 °F 37.9 °F 19.2 °F 38% 29.78 in - South 9.2 mph - N/A   Unknown
5:00 PM 41.4 °F 37.6 °F 20.1 °F 43% 29.78 in - SSE 5.8 mph - N/A   Unknown
6:00 PM 40.8 °F 38.8 °F 21.2 °F 46% 29.78 in - SSE 3.5 mph - N/A   Unknown
7:00 PM 39.4 °F - 22.1 °F 50% 29.74 in - SSE 2.3 mph - N/A   Unknown
8:00 PM 41.4 °F 37.6 °F 23.5 °F 49% 29.71 in - South 5.8 mph - N/A   Unknown
9:00 PM 40.8 °F 37.8 °F 25.3 °F 54% 29.68 in - SSE 4.6 mph - N/A   Unknown
10:00 PM 41 °F - 27 °F 45% 29.66 in - South 8.1 mph - -  
10:00 PM 41.4 °F 36.2 °F 27.0 °F 57% 29.66 in - South 8.1 mph - N/A   Unknown
11:00 PM 40.3 °F 36.3 °F 27.7 °F 61% 29.66 in - South 5.8 mph - N/A   Unknown